Weather History for Bad Axe, MI

Change the Weather History Date:

Friday, January 4, 2013

  Actual Average (KP58) Record (KP58)
Temperature  
Mean Temperature 28 °F -  
Max Temperature 32 °F 32 °F 54 °F (1997)
Min Temperature 25 °F 22 °F 16 °F (2015)
Degree Days  
Heating Degree Days 36    
Moisture  
Dew Point 22 °F    
Average Humidity 78    
Maximum Humidity 86    
Minimum Humidity 71    
Precipitation  
Precipitation 0.00 in - - ()
Sea Level Pressure  
Sea Level Pressure 29.96 in    
Wind  
Wind Speed 18 mph (WSW)    
Max Wind Speed 25 mph    
Max Gust Speed 38 mph    
Visibility 10 miles    
Events      
Averages and records for this station are not official NWS values.
T = Trace of Precipitation, MM = Missing Value Source: NWS Daily Summary

Daily Weather History Graph

Daily Weather History Graph

Search for Another Location

Airport:

Trip Planner

Search our weather history database for the weather conditions in past years. The results will help you decide how hot, cold, wet, or windy it might be!

Date:

Astronomy

Jan. 04, 2013 Rise Set
Actual Time 8:05 AM EST 5:08 PM EST
Civil Twilight 7:33 AM EST 5:41 PM EST
Nautical Twilight 6:57 AM EST 6:17 PM EST
Astronomical Twilight 6:22 AM EST 6:51 PM EST
Moon No Moon Rise 11:32 AM EST (1/4)
Length of Visible Light 10h 07m
Length of Day
9h 02m
Waning Gibbous, 55% of the Moon is Illuminated
Jan 4
Waning Gibbous
Jan 4
Last Quarter
Jan 11
New
Jan 18
First Quarter
Jan 26
Full

Hourly Weather History & Observations

Time (EST) Temp. Windchill Dew Point Humidity Pressure Visibility Wind Dir Wind Speed Gust Speed Precip Events Conditions
12:14 AM 27.5 °F 15.0 °F 21.2 °F 77% 30.01 in 10.0 mi WSW 17.3 mph 23.0 mph N/A   Overcast
12:34 AM 27.5 °F 15.4 °F 21.2 °F 77% 30.01 in 10.0 mi WSW 16.1 mph 24.2 mph N/A   Overcast
12:54 AM 27.3 °F 14.8 °F 21.2 °F 78% 30.00 in 10.0 mi WSW 17.3 mph 24.2 mph N/A   Overcast
1:14 AM 27.3 °F 14.8 °F 21.2 °F 78% 30.00 in 10.0 mi WSW 17.3 mph 25.3 mph N/A   Overcast
1:34 AM 27.3 °F 14.4 °F 21.2 °F 78% 29.99 in 10.0 mi WSW 18.4 mph 25.3 mph N/A   Overcast
1:54 AM 27.5 °F 13.9 °F 21.2 °F 77% 29.98 in 10.0 mi WSW 20.7 mph 32.2 mph N/A   Overcast
2:34 AM 27.3 °F 13.6 °F 21.2 °F 78% 29.97 in 10.0 mi WSW 20.7 mph 28.8 mph N/A   Overcast
2:54 AM 27.1 °F 14.5 °F 21.0 °F 78% 29.97 in 10.0 mi WSW 17.3 mph 26.5 mph N/A   Overcast
3:15 AM 27.0 °F 14.3 °F 21.0 °F 78% 29.96 in 10.0 mi WSW 17.3 mph 27.6 mph N/A   Mostly Cloudy
3:34 AM 26.6 °F 12.7 °F 20.8 °F 79% 29.96 in 10.0 mi WSW 20.7 mph 25.3 mph N/A   Scattered Clouds
3:54 AM 26.6 °F 14.3 °F 21.0 °F 79% 29.96 in 10.0 mi WSW 16.1 mph 24.2 mph N/A   Clear
4:15 AM 26.6 °F 12.7 °F 21.0 °F 79% 29.95 in 10.0 mi WSW 20.7 mph 26.5 mph N/A   Clear
4:34 AM 26.6 °F 13.4 °F 21.2 °F 80% 29.95 in 10.0 mi WSW 18.4 mph 26.5 mph N/A   Scattered Clouds
4:54 AM 27.1 °F 14.5 °F 21.4 °F 79% 29.94 in 10.0 mi WSW 17.3 mph 25.3 mph N/A   Scattered Clouds
5:14 AM 27.1 °F 13.8 °F 21.6 °F 80% 29.92 in 10.0 mi WSW 19.6 mph 29.9 mph N/A   Scattered Clouds
5:34 AM 27.1 °F 13.1 °F 21.6 °F 80% 29.92 in 10.0 mi WSW 21.9 mph 33.4 mph N/A   Clear
5:54 AM 26.8 °F 12.6 °F 21.2 °F 79% 29.92 in 10.0 mi WSW 21.9 mph 29.9 mph N/A   Clear
6:14 AM 26.6 °F 12.0 °F 20.8 °F 79% 29.93 in 10.0 mi WSW 23.0 mph 29.9 mph N/A   Clear
6:34 AM 26.6 °F 12.7 °F 21.0 °F 79% 29.93 in 10.0 mi WSW 20.7 mph 26.5 mph N/A   Clear
7:14 AM 26.2 °F 13.0 °F 20.7 °F 79% 29.94 in 10.0 mi WSW 18.4 mph 28.8 mph N/A   Clear
7:34 AM 26.1 °F 13.1 °F 20.7 °F 80% 29.93 in 10.0 mi WSW 17.3 mph 26.5 mph N/A   Clear
7:54 AM 26.2 °F 12.6 °F 20.7 °F 79% 29.92 in 10.0 mi WSW 19.6 mph 32.2 mph N/A   Clear
8:14 AM 26.2 °F 12.2 °F 20.8 °F 80% 29.92 in 10.0 mi WSW 20.7 mph 31.1 mph N/A   Clear
8:34 AM 26.1 °F 12.7 °F 20.3 °F 79% 29.91 in 10.0 mi WSW 18.4 mph 28.8 mph N/A   Clear
8:54 AM 26.1 °F 12.3 °F 20.3 °F 79% 29.91 in 10.0 mi WSW 19.6 mph 28.8 mph N/A   Clear
9:14 AM 26.2 °F 13.0 °F 20.3 °F 78% 29.92 in 10.0 mi WSW 18.4 mph 27.6 mph N/A   Clear
9:34 AM 26.6 °F 13.4 °F 20.3 °F 77% 29.92 in 10.0 mi WSW 18.4 mph 29.9 mph N/A   Clear
9:55 AM 26.6 °F 11.4 °F 20.7 °F 78% 29.92 in 10.0 mi WSW 25.3 mph 31.1 mph N/A   Clear
10:14 AM 27.1 °F 13.1 °F 20.8 °F 77% 29.91 in 10.0 mi WSW 21.9 mph 32.2 mph N/A   Clear
10:34 AM 27.3 °F 12.7 °F 21.0 °F 77% 29.91 in 10.0 mi WSW 24.2 mph 38.0 mph N/A   Clear
10:54 AM 27.5 °F 13.5 °F 21.2 °F 77% 29.91 in 7.0 mi WSW 21.9 mph 33.4 mph N/A   Clear
11:14 AM 28.2 °F 14.8 °F 21.6 °F 76% 29.92 in 10.0 mi WSW 20.7 mph 28.8 mph N/A   Clear
11:35 AM 28.8 °F 15.9 °F 22.1 °F 76% 29.92 in 10.0 mi WSW 19.6 mph 28.8 mph N/A   Scattered Clouds
11:54 AM 28.9 °F 15.1 °F 22.5 °F 77% 29.92 in 10.0 mi WSW 23.0 mph 28.8 mph N/A   Mostly Cloudy
12:14 PM 29.8 °F 17.0 °F 23.0 °F 76% 29.91 in 10.0 mi West 20.7 mph 31.1 mph N/A   Overcast
12:35 PM 30.7 °F 18.1 °F 23.7 °F 75% 29.90 in 10.0 mi West 20.7 mph 26.5 mph N/A   Overcast
12:54 PM 30.6 °F 16.7 °F 23.0 °F 74% 29.90 in 10.0 mi West 25.3 mph 33.4 mph N/A   Overcast
1:14 PM 30.9 °F 17.5 °F 23.2 °F 73% 29.89 in 10.0 mi West 24.2 mph 33.4 mph N/A   Overcast
1:35 PM 31.1 °F 19.3 °F 23.7 °F 74% 29.89 in 10.0 mi WSW 18.4 mph 25.3 mph N/A   Overcast
1:54 PM 31.1 °F 18.0 °F 23.5 °F 74% 29.89 in 10.0 mi WSW 23.0 mph 35.7 mph N/A   Overcast
2:15 PM 31.6 °F 19.7 °F 23.7 °F 73% 29.89 in 10.0 mi West 19.6 mph 31.1 mph N/A   Overcast
2:34 PM 31.6 °F 20.0 °F 23.5 °F 72% 29.88 in 10.0 mi WSW 18.4 mph 27.6 mph N/A   Mostly Cloudy
2:54 PM 32.0 °F 18.9 °F 23.7 °F 71% 29.88 in 10.0 mi West 24.2 mph 31.1 mph N/A   Mostly Cloudy
3:15 PM 32.0 °F 19.8 °F 23.7 °F 71% 29.89 in 10.0 mi West 20.7 mph 26.5 mph N/A   Scattered Clouds
3:34 PM 32.0 °F 20.8 °F 23.7 °F 71% 29.90 in 10.0 mi West 17.3 mph 28.8 mph N/A   Clear
3:54 PM 31.8 °F 19.6 °F 23.9 °F 73% 29.91 in 10.0 mi West 20.7 mph 26.5 mph N/A   Clear
4:15 PM 31.5 °F 20.1 °F 23.9 °F 74% 29.92 in 10.0 mi West 17.3 mph 25.3 mph N/A   Clear
4:34 PM 30.7 °F 18.8 °F 23.2 °F 74% 29.92 in 10.0 mi West 18.4 mph 23.0 mph N/A   Clear
4:54 PM 30.0 °F 18.7 °F 23.0 °F 75% 29.93 in 10.0 mi West 16.1 mph 21.9 mph N/A   Clear
5:15 PM 29.7 °F 17.4 °F 23.0 °F 76% 29.94 in 10.0 mi West 18.4 mph 25.3 mph N/A   Clear
5:34 PM 29.1 °F 17.5 °F 22.8 °F 77% 29.94 in 10.0 mi WSW 16.1 mph 24.2 mph N/A   Clear
5:55 PM 28.8 °F 16.6 °F 22.6 °F 78% 29.95 in 10.0 mi WSW 17.3 mph 23.0 mph N/A   Clear
6:14 PM 28.6 °F 17.2 °F 22.3 °F 77% 29.96 in 10.0 mi West 15.0 mph 25.3 mph N/A   Clear
6:34 PM 28.2 °F 16.3 °F 22.1 °F 78% 29.97 in 10.0 mi West 16.1 mph 23.0 mph N/A   Clear
6:55 PM 28.0 °F 15.3 °F 22.1 °F 78% 29.98 in 10.0 mi WSW 18.4 mph 25.3 mph N/A   Clear
7:14 PM 27.9 °F 15.9 °F 21.9 °F 78% 29.99 in 10.0 mi West 16.1 mph 24.2 mph N/A   Clear
7:34 PM 27.5 °F 16.3 °F 21.9 °F 80% 30.00 in 10.0 mi West 13.8 mph 19.6 mph N/A   Clear
7:55 PM 27.5 °F 16.8 °F 21.9 °F 80% 30.01 in 10.0 mi West 12.7 mph 19.6 mph N/A   Clear
8:14 PM 27.3 °F 16.6 °F 21.9 °F 80% 30.03 in 10.0 mi West 12.7 mph 23.0 mph N/A   Clear
8:34 PM 27.1 °F 14.5 °F 21.9 °F 81% 30.03 in 10.0 mi West 17.3 mph 23.0 mph N/A   Clear
8:54 PM 27.1 °F 15.9 °F 21.9 °F 81% 30.04 in 10.0 mi West 13.8 mph 24.2 mph N/A   Clear
9:15 PM 27.0 °F 16.7 °F 21.9 °F 81% 30.04 in 10.0 mi West 11.5 mph 20.7 mph N/A   Clear
9:35 PM 26.6 °F 15.2 °F 21.7 °F 82% 30.05 in 10.0 mi West 13.8 mph - N/A   Clear
9:54 PM 26.6 °F 15.2 °F 21.7 °F 82% 30.06 in 10.0 mi West 13.8 mph 19.6 mph N/A   Clear
10:15 PM 26.4 °F 16.6 °F 21.7 °F 82% 30.07 in 10.0 mi West 10.4 mph 17.3 mph N/A   Clear
10:35 PM 26.4 °F 16.0 °F 21.9 °F 83% 30.08 in 10.0 mi West 11.5 mph 17.3 mph N/A   Clear
10:54 PM 25.9 °F 16.6 °F 21.7 °F 84% 30.09 in 10.0 mi West 9.2 mph - N/A   Clear
11:13 PM 25.7 °F 15.7 °F 21.7 °F 85% 30.10 in 10.0 mi West 10.4 mph - N/A   Clear
11:34 PM 25.7 °F 16.4 °F 21.9 °F 86% 30.10 in 10.0 mi West 9.2 mph - N/A   Clear
11:54 PM 25.7 °F 15.1 °F 21.9 °F 86% 30.11 in 10.0 mi West 11.5 mph - N/A   Clear